[[{"header":{"parameterUnit":"m.s-1","parameterCategory":1,"la1":30.2991,"la2":30.254,"lo1":-89.0895,"lo2":-89.0444,"dy":0.0017,"dx":0.0017,"nx":28,"ny":28,"refTime":"2025-07-13T09:00:00:Z","depth":0,"parameterNumber":2,"parameterNumberName":"U-component_of_WINDS"},"data":[0,0,0,0,0,0,0,0,0,0,0,0,0,0,0,0,0,0,0,0,0,0,0,0,0,0,0,0,0,0,0,0,0,0,0,0,0,0,0,0,0,0,0,0,0,0,0,0,0,0,0,0,0,0,0,0,0,0,2.1265,2.1266,0,2.1352,2.1353,2.1354,2.1345,2.1344,2.1342,2.1341,2.1427,2.1431,2.1434,0,0,0,0,0,0,0,0,0,0,0,0,0,2.1086,2.109,2.1265,2.1266,2.1267,2.1352,2.1354,2.1355,2.1345,2.1344,2.1342,2.1341,2.1426,2.143,2.1435,0,0,0,0,0,0,0,0,0,0,0,0,0,2.1168,2.1091,2.1265,2.1273,2.1275,2.1352,2.1354,2.1355,2.1346,2.1344,2.1342,2.134,2.1425,2.143,2.1435,2.1509,0,0,2.1451,2.1454,0,0,0,0,0,0,0,0,2.1163,2.1174,2.1271,2.1273,2.1275,2.1336,2.1322,2.1407,2.1346,2.1319,2.1341,2.1339,2.1398,2.1406,2.1426,2.1513,2.1517,2.1452,2.1455,2.1457,2.1459,0,0,0,0,0,0,0,2.1157,2.117,2.13,2.1272,2.1275,2.1271,2.128,2.1338,2.1369,2.1321,2.1321,2.1331,2.1399,2.1421,2.1428,2.1518,2.1452,2.1456,2.146,2.1462,2.1666,2.1668,0,0,0,0,0,0,2.115,2.1166,2.1297,2.1302,2.1213,2.1276,2.1286,2.1318,2.1368,2.1374,2.1333,2.133,2.1413,2.1422,2.1431,2.1518,2.1457,2.1462,2.1465,2.1664,2.1667,2.1669,0,0,0,0,0,0,2.1147,2.1162,2.1293,2.1234,2.125,2.1281,2.1317,2.1321,2.1343,2.1377,2.1382,2.135,2.1412,2.1424,2.1489,2.1521,2.1465,2.147,2.1661,2.1665,2.1668,2.1695,0,0,0,0,0,0,2.1142,2.1161,2.119,2.1235,2.1254,2.1351,2.1319,2.1324,2.1353,2.1351,2.1395,2.14,2.1411,2.1481,2.1495,2.1528,2.1474,2.1659,2.1663,2.1667,2.1691,2.1699,2.1705,0,0,0,0,0,2.1135,2.1195,2.1192,2.1208,2.1291,2.1353,2.1364,2.1376,2.1356,2.1385,2.1406,2.1399,2.1516,2.1488,2.1503,2.1538,2.1657,2.1662,2.1667,2.1688,2.1697,2.1705,0,0,0,0,0,0,2.1153,2.1201,2.1198,2.1274,2.131,2.1351,2.1388,2.1386,2.1427,2.1423,2.1436,2.1446,2.1511,2.1532,2.1499,2.1611,2.1583,2.1592,2.1595,2.1604,2.1611,2.1603,2.1478,0,0,0,0,0,2.1165,2.1213,2.1252,2.1315,2.1333,2.1358,2.1385,2.1392,2.1428,2.1443,2.1469,2.1504,2.1549,2.1578,2.1621,2.1695,2.1703,2.1726,2.1733,2.1739,2.1745,2.1782,2.1792,2.1686,2.1685,2.1685,0,0,2.1192,2.1224,2.1253,2.1319,2.1347,2.1394,2.137,2.1422,2.1456,2.1451,2.1513,2.1534,2.1574,2.1643,2.1675,2.1662,2.1776,2.1745,2.1749,2.1752,2.1788,2.1799,2.1807,2.1689,2.1688,2.1688,0,0,2.1264,2.1294,2.1348,2.1377,2.1421,2.1436,2.145,2.1492,2.1505,2.1569,2.1565,2.1605,2.1683,2.171,2.1734,2.1815,2.1809,2.1829,2.1864,2.1901,2.1909,2.1917,2.1942,2.1952,2.1836,2.1836,2.1836,0,2.1291,2.1362,2.1376,2.1428,2.1455,2.1454,2.1507,2.1535,2.1589,2.1608,2.1593,2.1689,2.1716,2.1789,2.1809,2.183,2.1843,2.1823,2.1907,2.1915,2.1922,2.1946,2.1957,2.1838,2.1837,2.1837,2.1837,0,2.1392,2.1442,2.148,2.1533,2.1566,2.1618,2.1638,2.1669,2.1673,2.1689,2.1753,2.1785,2.1833,2.1852,2.1856,2.1926,2.1916,2.1905,2.1877,2.1934,2.1957,2.1967,2.184,2.184,2.1839,2.1839,0,0,2.1476,2.1536,2.1549,2.1572,2.1619,2.1657,2.1709,2.1756,2.1781,2.1819,2.186,2.1926,2.1914,2.1942,2.1949,2.1981,2.2039,2.1965,2.1966,2.1975,2.2115,2.2121,2.2132,2.2037,2.2038,2.204,2.211,0,2.155,2.1642,2.1655,2.1735,2.1779,2.1778,2.1822,2.1855,2.1872,2.1911,2.1929,2.1974,2.1957,2.1973,2.2006,2.2025,2.2067,2.2021,2.2072,2.2074,2.206,2.2145,2.2152,2.2217,2.212,2.2121,2.2123,0,2.1648,2.1689,2.1773,2.1812,2.1831,2.1871,2.1914,2.1953,2.1989,2.1999,2.2029,2.2032,2.2082,2.2054,2.2123,2.2091,2.2114,2.2126,2.2129,2.2132,2.21,2.2147,2.2238,2.2247,2.2138,2.2136,2.2135,0,2.1697,2.1773,2.1832,2.1852,2.19,2.1928,2.1949,2.1983,2.201,2.2048,2.2065,2.2109,2.2132,2.2165,2.2178,2.2157,2.2245,2.2219,2.2252,2.2252,2.2269,2.2267,2.2362,2.2288,2.2288,2.2288,2.2287,0,2.1777,2.1827,2.1854,2.1891,2.1947,2.1961,2.2016,2.2036,2.2066,2.2105,2.2107,2.2143,2.216,2.2198,2.221,2.2263,2.2274,2.2282,2.2283,2.228,2.2278,2.2292,2.2287,2.229,2.229,2.2289,2.2289,0,2.184,2.186,2.1924,2.1964,2.1976,2.2015,2.2048,2.2082,2.2099,2.2148,2.216,2.2186,2.223,2.2248,2.2303,2.231,2.2371,2.2371,2.2358,2.2358,2.2389,2.2385,2.2494,2.2508,2.2428,2.2428,2.2429,0,2.1888,2.1927,2.1971,2.1997,2.2019,2.2062,2.2089,2.2105,2.2133,2.2176,2.2204,2.2249,2.2286,2.2357,2.2379,2.2421,2.2419,2.2455,2.2426,2.242,2.2416,2.2413,2.2415,2.2459,2.246,2.2461,2.2461,0,2.1969,2.1977,2.2018,2.2061,2.2094,2.2129,2.2162,2.2183,2.2204,2.2235,2.2281,2.2309,2.2365,2.2408,2.2451,2.2471,2.2468,2.2471,2.248,2.2475,2.2466,2.2468,2.237,2.2468,2.2467,2.2467,2.2466,2.2466,2.2024,2.2058,2.2093,2.2137,2.2164,2.2196,2.2229,2.225,2.2289,2.2335,2.2342,2.239,2.2424,2.248,2.2502,2.2539,2.2529,2.2544,2.2547,2.2549,2.255,2.2462,2.2547,2.2547,2.2547,2.2547,2.2546,0,2.2103,2.2126,2.2167,2.2214,2.2248,2.2245,2.2281,2.2309,2.2352,2.2384,2.242,2.2471,2.2513,2.2539,2.258,2.2605,2.2604,2.2615,2.2612,2.2616,2.2557,2.2544,2.2614,2.2614,2.2614,2.2614,2.2614,2.2614,2.2148,2.2204,2.2216,2.2284,2.2306,2.2354,2.2375,2.2403,2.2428,2.2485,2.252,2.2537,2.2566,2.2609,2.2647,2.2653,2.2667,2.2677,2.2683,2.2627,2.262,2.2613,2.26,2.2681,2.2681,2.2737,2.2738,2.2738]},{"header":{"parameterUnit":"m.s-1","parameterCategory":1,"la1":30.2991,"la2":30.254,"lo1":-89.0895,"lo2":-89.0444,"dy":0.0017,"dx":0.0017,"nx":28,"ny":28,"refTime":"2025-07-13T09:00:00:Z","depth":0,"parameterNumber":3,"parameterNumberName":"V-component_of_WINDS"},"data":[0,0,0,0,0,0,0,0,0,0,0,0,0,0,0,0,0,0,0,0,0,0,0,0,0,0,0,0,0,0,0,0,0,0,0,0,0,0,0,0,0,0,0,0,0,0,0,0,0,0,0,0,0,0,0,0,0,0,1.2566,1.2566,0,1.2592,1.2592,1.2593,1.2557,1.2556,1.2555,1.2553,1.2582,1.2584,1.2586,0,0,0,0,0,0,0,0,0,0,0,0,0,1.2484,1.2486,1.2565,1.2566,1.2566,1.2592,1.2592,1.2593,1.2557,1.2556,1.2554,1.2553,1.2582,1.2584,1.2586,0,0,0,0,0,0,0,0,0,0,0,0,0,1.2516,1.2486,1.2565,1.2552,1.2551,1.2592,1.2592,1.2593,1.2558,1.2556,1.2554,1.2552,1.2581,1.2584,1.2587,1.2643,0,0,1.2596,1.2597,0,0,0,0,0,0,0,0,1.2514,1.2519,1.2553,1.2553,1.2552,1.2569,1.2574,1.261,1.2558,1.2555,1.2553,1.2551,1.258,1.2583,1.2592,1.2645,1.2646,1.2596,1.2598,1.2599,1.26,0,0,0,0,0,0,0,1.2512,1.2518,1.2576,1.2554,1.2553,1.2544,1.2546,1.2581,1.2578,1.2555,1.2553,1.2556,1.2579,1.2589,1.2592,1.2646,1.2596,1.2599,1.26,1.2602,1.2745,1.2747,0,0,0,0,0,0,1.2511,1.2516,1.2575,1.2577,1.2528,1.2547,1.255,1.2566,1.2577,1.2577,1.2558,1.2554,1.2585,1.2589,1.2593,1.2659,1.2599,1.2602,1.2604,1.2743,1.2745,1.2747,0,0,0,0,0,0,1.251,1.2517,1.2574,1.2546,1.2552,1.255,1.2569,1.2567,1.2577,1.2579,1.2579,1.2569,1.2584,1.2589,1.2631,1.2659,1.2603,1.2606,1.274,1.2743,1.2746,1.2792,0,0,0,0,0,0,1.2508,1.2517,1.2538,1.2546,1.2554,1.2611,1.257,1.2569,1.2582,1.2578,1.259,1.259,1.2583,1.2626,1.2633,1.2663,1.2608,1.2738,1.2742,1.2745,1.2788,1.2796,1.2803,0,0,0,0,0,1.2505,1.2551,1.254,1.2547,1.2581,1.2613,1.2617,1.2608,1.2585,1.2606,1.2607,1.2589,1.2655,1.2631,1.2639,1.2669,1.2736,1.2741,1.2745,1.2784,1.2794,1.2803,0,0,0,0,0,0,1.2548,1.2552,1.2539,1.259,1.2601,1.2607,1.2634,1.2619,1.2638,1.2633,1.2621,1.2624,1.2668,1.2673,1.2646,1.2723,1.2692,1.2698,1.2719,1.2728,1.2736,1.2734,1.2611,0,0,0,0,0,1.2563,1.2588,1.2591,1.2635,1.2641,1.2637,1.265,1.2641,1.2653,1.2658,1.2662,1.2674,1.2697,1.2713,1.2735,1.2788,1.2789,1.2812,1.282,1.2826,1.2832,1.2859,1.2869,1.2762,1.2762,1.2762,0,0,1.2595,1.26,1.2617,1.2643,1.2651,1.2677,1.2641,1.2671,1.269,1.2663,1.2702,1.2705,1.2718,1.2765,1.2786,1.277,1.2861,1.2832,1.2837,1.284,1.2864,1.2875,1.2883,1.2765,1.2765,1.2764,0,0,1.2666,1.2673,1.271,1.2718,1.273,1.2726,1.2735,1.2742,1.2743,1.2782,1.2761,1.2783,1.2824,1.2833,1.2844,1.2915,1.2899,1.2923,1.2963,1.299,1.2998,1.3005,1.303,1.3039,1.2929,1.2929,1.2929,0,1.2705,1.2744,1.2731,1.2761,1.2773,1.2748,1.2784,1.2793,1.2811,1.282,1.2802,1.285,1.2857,1.2905,1.2922,1.2932,1.2941,1.2922,1.2998,1.3005,1.3012,1.3035,1.3044,1.2931,1.2931,1.2931,1.2931,0,1.279,1.2816,1.2844,1.2861,1.2876,1.291,1.2902,1.2918,1.2907,1.2905,1.2944,1.2951,1.2972,1.2983,1.2974,1.3029,1.3019,1.3,1.2967,1.3025,1.3046,1.3055,1.2935,1.2934,1.2934,1.2933,0,0,1.2891,1.2898,1.2909,1.2915,1.2925,1.2946,1.2977,1.2997,1.3011,1.3024,1.305,1.3083,1.3064,1.3076,1.3067,1.309,1.3145,1.3067,1.3067,1.3081,1.3205,1.3219,1.323,1.3134,1.3135,1.3137,1.3203,0,1.2961,1.3015,1.3004,1.3057,1.3081,1.3056,1.3083,1.3092,1.309,1.311,1.3109,1.3132,1.3106,1.3112,1.3134,1.3134,1.3169,1.3129,1.3157,1.3158,1.3155,1.3241,1.3257,1.332,1.3212,1.3213,1.3214,0,1.3052,1.3066,1.3121,1.3125,1.3134,1.3159,1.3175,1.3195,1.3204,1.3201,1.3212,1.3198,1.3229,1.3196,1.3238,1.321,1.3221,1.3222,1.3224,1.3227,1.319,1.3246,1.334,1.3349,1.3228,1.3227,1.3226,0,1.3119,1.3152,1.3189,1.3195,1.3201,1.3219,1.3222,1.3229,1.3241,1.3255,1.3262,1.328,1.329,1.3304,1.3295,1.3272,1.3338,1.3305,1.3336,1.3336,1.3351,1.3351,1.3449,1.3359,1.3359,1.3359,1.3358,0,1.3199,1.3233,1.3219,1.3241,1.3279,1.3264,1.3302,1.3302,1.3308,1.333,1.331,1.3331,1.3318,1.3337,1.3331,1.3365,1.337,1.3368,1.3366,1.337,1.337,1.3377,1.3372,1.3361,1.336,1.336,1.336,0,1.328,1.3272,1.331,1.3311,1.3312,1.334,1.3341,1.3362,1.3358,1.3385,1.3391,1.3385,1.3407,1.3399,1.3423,1.3418,1.3462,1.3455,1.3459,1.3457,1.3489,1.3486,1.3595,1.3608,1.351,1.3511,1.3512,0,1.3332,1.3357,1.3361,1.3373,1.3378,1.3399,1.341,1.3396,1.3409,1.342,1.3439,1.3459,1.3474,1.351,1.3508,1.3526,1.3518,1.3555,1.3521,1.3524,1.3518,1.3517,1.3518,1.3562,1.3563,1.3564,1.3565,0,1.3424,1.3418,1.3435,1.345,1.3464,1.3476,1.3485,1.3497,1.3484,1.3499,1.352,1.3532,1.3555,1.3575,1.359,1.3594,1.3577,1.3575,1.3583,1.3588,1.3589,1.3588,1.3478,1.3573,1.3572,1.3572,1.3571,1.3571,1.3492,1.3512,1.3517,1.3536,1.3542,1.3551,1.357,1.3567,1.3585,1.3602,1.3593,1.3617,1.3624,1.3642,1.3647,1.3666,1.3652,1.3664,1.3667,1.367,1.3674,1.3586,1.3669,1.3669,1.3669,1.3669,1.3668,0,1.3582,1.3583,1.3601,1.3614,1.3629,1.361,1.362,1.3633,1.3655,1.3662,1.3676,1.37,1.3719,1.3717,1.3734,1.3749,1.3742,1.3754,1.3753,1.3754,1.3686,1.3677,1.376,1.376,1.376,1.376,1.376,1.376,1.3631,1.3664,1.3658,1.3694,1.3695,1.3718,1.3725,1.3733,1.3738,1.3765,1.378,1.3778,1.3781,1.3798,1.3814,1.3812,1.3819,1.3834,1.3831,1.3768,1.3759,1.375,1.3741,1.3836,1.3836,1.3896,1.3897,1.3897]}]]